IRM51 OIIE-OMDB

Flight info

Callsign IRM51
Flight time 1h 49m
Altitude 39000
Route EGVEL4G EGVEL P574 SYZ G666 ORSAR R784 TATLA L223 VUTEB VUTEB4C
Aircraft A346/H-SDE2E3FGHIJ3J4J5M1RWXY/LB1D1

Departure

Time 2026-05-06 10:06
Airport Imam Khomeini International Airport (OIIE)

Arrival

Time 2026-05-06 11:56
Airport Dubai International Airport (OMDB)
Time Latitude Longitude Altitude Speed Heading
2026-05-06 09:40 35.40977 51.15762 3277 ft 0 kts 199°
2026-05-06 09:58 35.40982 51.15765 3274 ft 3 kts 199°
2026-05-06 09:58 35.41004 51.15774 3275 ft 3 kts 199°
2026-05-06 09:58 35.41022 51.15780 3274 ft 3 kts 185°
2026-05-06 09:58 35.41037 51.15778 3274 ft 3 kts 155°
2026-05-06 09:59 35.41048 51.15768 3274 ft 3 kts 122°
2026-05-06 09:59 35.41057 51.15744 3274 ft 3 kts 108°
2026-05-06 09:59 35.41064 51.15719 3274 ft 2 kts 109°
2026-05-06 09:59 35.41064 51.15717 3274 ft 0 kts 109°
2026-05-06 10:01 35.41064 51.15718 3279 ft 0 kts 109°
2026-05-06 10:01 35.41061 51.15729 3276 ft 3 kts 109°
2026-05-06 10:01 35.41052 51.15763 3276 ft 5 kts 103°
2026-05-06 10:01 35.41062 51.15809 3277 ft 6 kts 51°
2026-05-06 10:02 35.41102 51.15843 3276 ft 9 kts 24°
2026-05-06 10:02 35.41165 51.15871 3278 ft 10 kts 29°
2026-05-06 10:02 35.41189 51.15964 3277 ft 14 kts 101°
2026-05-06 10:02 35.41153 51.16102 3273 ft 19 kts 109°
2026-05-06 10:03 35.41121 51.16215 3271 ft 11 kts 109°
2026-05-06 10:03 35.41092 51.16322 3268 ft 16 kts 109°
2026-05-06 10:03 35.41070 51.16438 3265 ft 11 kts 77°
2026-05-06 10:03 35.41120 51.16495 3264 ft 12 kts 22°
2026-05-06 10:04 35.41173 51.16519 3264 ft 8 kts 19°
2026-05-06 10:04 35.41232 51.16543 3264 ft 9 kts 19°
2026-05-06 10:04 35.41288 51.16564 3266 ft 8 kts
2026-05-06 10:04 35.41326 51.16535 3268 ft 6 kts 308°
2026-05-06 10:05 35.41345 51.16485 3271 ft 7 kts 288°
2026-05-06 10:05 35.41370 51.16391 3270 ft 28 kts 288°
2026-05-06 10:05 35.41503 51.15914 3276 ft 88 kts 289°
2026-05-06 10:05 35.41761 51.14987 3296 ft 139 kts 289°
2026-05-06 10:06 35.42132 51.13713 3420 ft 169 kts 283°
2026-05-06 10:06 35.42526 51.12417 4195 ft 158 kts 283°
2026-05-06 10:06 35.42888 51.11114 4777 ft 166 kts 281°
2026-05-06 10:06 35.43265 51.09738 5218 ft 174 kts 280°
2026-05-06 10:07 35.43659 51.08261 5507 ft 190 kts 282°
2026-05-06 10:07 35.44087 51.06660 5794 ft 205 kts 283°
2026-05-06 10:07 35.44382 51.05530 5986 ft 215 kts 283°
2026-05-06 10:07 35.44862 51.03070 6347 ft 233 kts 269°
2026-05-06 10:08 35.44865 51.01000 6646 ft 250 kts 264°
2026-05-06 10:08 35.44796 50.98791 7019 ft 266 kts 264°
2026-05-06 10:08 35.44717 50.96486 7725 ft 269 kts 264°
2026-05-06 10:08 35.44594 50.94976 8266 ft 267 kts 253°
2026-05-06 10:09 35.43231 50.92505 9302 ft 268 kts 217°
2026-05-06 10:09 35.41604 50.91417 10083 ft 271 kts 206°
2026-05-06 10:09 35.39873 50.90433 10790 ft 280 kts 206°
2026-05-06 10:09 35.38655 50.89734 11091 ft 292 kts 207°
2026-05-06 10:10 35.36763 50.88633 11514 ft 310 kts 207°
2026-05-06 10:10 35.34787 50.87472 11936 ft 329 kts 207°
2026-05-06 10:10 35.32664 50.86223 12362 ft 346 kts 207°
2026-05-06 10:10 35.30462 50.84920 13050 ft 354 kts 208°
2026-05-06 10:11 35.28245 50.83607 14037 ft 353 kts 208°
2026-05-06 10:11 35.26030 50.82289 14921 ft 355 kts 208°
2026-05-06 10:11 35.23790 50.80956 15717 ft 359 kts 209°
2026-05-06 10:11 35.21527 50.79609 16506 ft 364 kts 209°
2026-05-06 10:12 35.19241 50.78249 17349 ft 367 kts 209°
2026-05-06 10:12 35.16937 50.76881 18204 ft 369 kts 209°
2026-05-06 10:12 35.14598 50.75494 18899 ft 374 kts 210°
2026-05-06 10:12 35.12272 50.74112 19590 ft 378 kts 210°
2026-05-06 10:13 35.09895 50.72702 20333 ft 381 kts 210°
2026-05-06 10:13 35.07492 50.71278 21039 ft 385 kts 210°
2026-05-06 10:13 35.05076 50.69848 21742 ft 388 kts 210°
2026-05-06 10:13 35.02628 50.68400 22466 ft 392 kts 210°
2026-05-06 10:14 35.00163 50.66943 23186 ft 395 kts 210°
2026-05-06 10:14 34.97684 50.65479 23799 ft 399 kts 210°
2026-05-06 10:14 34.95172 50.63995 24335 ft 403 kts 209°
2026-05-06 10:14 34.92635 50.62497 24901 ft 407 kts 209°
2026-05-06 10:15 34.90075 50.60991 25494 ft 410 kts 209°
2026-05-06 10:15 34.87493 50.59473 26092 ft 412 kts 209°
2026-05-06 10:15 34.84899 50.57949 26680 ft 415 kts 209°
2026-05-06 10:15 34.82289 50.56415 27277 ft 418 kts 209°
2026-05-06 10:16 34.79697 50.54893 27810 ft 421 kts 209°
2026-05-06 10:16 34.77027 50.53384 28299 ft 428 kts 206°
2026-05-06 10:16 34.74133 50.52348 28708 ft 440 kts 196°
2026-05-06 10:16 34.71060 50.51939 29308 ft 448 kts 187°
2026-05-06 10:17 34.67933 50.52185 30115 ft 453 kts 178°
2026-05-06 10:17 34.64846 50.53090 30865 ft 458 kts 169°
2026-05-06 10:17 34.61836 50.54337 31605 ft 455 kts 168°
2026-05-06 10:17 34.58856 50.55616 32296 ft 453 kts 169°
2026-05-06 10:18 34.55896 50.56895 32914 ft 452 kts 169°
2026-05-06 10:18 34.52916 50.58175 33486 ft 452 kts 169°
2026-05-06 10:18 34.49955 50.59441 34042 ft 452 kts 170°
2026-05-06 10:18 34.46988 50.60706 34502 ft 451 kts 170°
2026-05-06 10:19 34.44019 50.61970 35001 ft 451 kts 170°
2026-05-06 10:19 34.41059 50.63230 35456 ft 451 kts 171°
2026-05-06 10:19 34.38104 50.64490 35936 ft 450 kts 171°
2026-05-06 10:19 34.35152 50.65744 36364 ft 450 kts 171°
2026-05-06 10:20 34.32226 50.66984 36710 ft 451 kts 171°
2026-05-06 10:20 34.29218 50.68257 37073 ft 452 kts 171°
2026-05-06 10:20 34.26280 50.69501 37421 ft 453 kts 171°
2026-05-06 10:20 34.23305 50.70763 37813 ft 454 kts 172°
2026-05-06 10:21 34.20327 50.72028 38184 ft 454 kts 172°
2026-05-06 10:21 34.17345 50.73290 38473 ft 455 kts 172°
2026-05-06 10:21 34.14346 50.74555 38715 ft 456 kts 172°
2026-05-06 10:21 34.11343 50.75821 38925 ft 457 kts 172°
2026-05-06 10:22 34.08333 50.77089 39043 ft 459 kts 172°
2026-05-06 10:22 34.05317 50.78362 39052 ft 459 kts 172°
2026-05-06 10:22 33.99287 50.80903 39070 ft 459 kts 172°
2026-05-06 10:23 33.93245 50.83448 39069 ft 459 kts 172°
2026-05-06 10:23 33.87208 50.85981 39064 ft 460 kts 172°
2026-05-06 10:24 33.81156 50.88520 39066 ft 461 kts 172°
2026-05-06 10:24 33.75116 50.91048 39092 ft 463 kts 171°
2026-05-06 10:25 33.69031 50.93602 39103 ft 464 kts 172°
2026-05-06 10:25 33.62916 50.96155 39102 ft 465 kts 172°
2026-05-06 10:26 33.56799 50.98702 39112 ft 465 kts 172°
2026-05-06 10:26 33.50688 51.01247 39114 ft 464 kts 172°
2026-05-06 10:27 33.44592 51.03782 39127 ft 464 kts 172°
2026-05-06 10:27 33.38488 51.06318 39137 ft 464 kts 172°
2026-05-06 10:28 33.32417 51.08835 39126 ft 463 kts 172°
2026-05-06 10:28 33.26333 51.11353 39129 ft 462 kts 172°
2026-05-06 10:29 33.20251 51.13865 39128 ft 462 kts 172°
2026-05-06 10:29 33.14161 51.16371 39106 ft 464 kts 172°
2026-05-06 10:30 33.08052 51.18889 39113 ft 464 kts 172°
2026-05-06 10:30 33.01936 51.21406 39113 ft 464 kts 172°
2026-05-06 10:31 32.95821 51.23910 39096 ft 466 kts 172°
2026-05-06 10:31 32.89721 51.26416 39112 ft 467 kts 172°
2026-05-06 10:32 32.83576 51.28934 39103 ft 467 kts 172°
2026-05-06 10:32 32.77437 51.31454 39094 ft 466 kts 172°
2026-05-06 10:33 32.71293 51.33964 39115 ft 466 kts 172°
2026-05-06 10:33 32.65162 51.36464 39093 ft 467 kts 172°
2026-05-06 10:34 32.59021 51.38966 39077 ft 466 kts 172°
2026-05-06 10:34 32.52887 51.41462 39088 ft 466 kts 172°
2026-05-06 10:35 32.46748 51.43958 39076 ft 466 kts 172°
2026-05-06 10:35 32.40610 51.46440 39069 ft 467 kts 171°
2026-05-06 10:36 32.34463 51.48935 39074 ft 467 kts 172°
2026-05-06 10:36 32.28310 51.51427 39086 ft 467 kts 172°
2026-05-06 10:37 32.22164 51.53909 39082 ft 467 kts 172°
2026-05-06 10:37 32.16018 51.56388 39082 ft 467 kts 172°
2026-05-06 10:38 32.09909 51.58854 39092 ft 466 kts 172°
2026-05-06 10:38 32.03768 51.61317 39079 ft 465 kts 172°
2026-05-06 10:39 31.97634 51.63777 39085 ft 465 kts 172°
2026-05-06 10:39 31.91505 51.66236 39093 ft 465 kts 172°
2026-05-06 10:40 31.85420 51.68670 39073 ft 466 kts 172°
2026-05-06 10:40 31.79273 51.71127 39096 ft 465 kts 172°
2026-05-06 10:41 31.73131 51.73582 39099 ft 466 kts 172°
2026-05-06 10:41 31.66982 51.76041 39095 ft 467 kts 172°
2026-05-06 10:42 31.60818 51.78501 39106 ft 468 kts 172°
2026-05-06 10:42 31.54649 51.80957 39103 ft 468 kts 172°
2026-05-06 10:43 31.48543 51.83383 39079 ft 466 kts 172°
2026-05-06 10:44 31.39309 51.87049 39106 ft 467 kts 172°
2026-05-06 10:44 31.33151 51.89493 39105 ft 467 kts 172°
2026-05-06 10:45 31.26987 51.91942 39106 ft 466 kts 172°
2026-05-06 10:45 31.20839 51.94370 39113 ft 466 kts 172°
2026-05-06 10:46 31.14730 51.96778 39125 ft 467 kts 172°
2026-05-06 10:46 31.08583 51.99202 39129 ft 466 kts 172°
2026-05-06 10:47 31.02454 52.01614 39130 ft 465 kts 172°
2026-05-06 10:47 30.96321 52.04023 39141 ft 465 kts 172°
2026-05-06 10:48 30.90166 52.06438 39137 ft 467 kts 173°
2026-05-06 10:48 30.84003 52.08855 39146 ft 467 kts 172°
2026-05-06 10:49 30.77841 52.11269 39156 ft 468 kts 173°
2026-05-06 10:49 30.71668 52.13679 39128 ft 467 kts 173°
2026-05-06 10:50 30.65539 52.16071 39157 ft 468 kts 173°
2026-05-06 10:50 30.59359 52.18477 39159 ft 468 kts 173°
2026-05-06 10:51 30.53182 52.20874 39137 ft 468 kts 172°
2026-05-06 10:51 30.47009 52.23263 39148 ft 469 kts 172°
2026-05-06 10:52 30.40804 52.25663 39146 ft 469 kts 172°
2026-05-06 10:52 30.34621 52.28054 39142 ft 468 kts 172°
2026-05-06 10:53 30.28437 52.30441 39158 ft 468 kts 173°
2026-05-06 10:53 30.22291 52.32807 39143 ft 468 kts 173°
2026-05-06 10:54 30.16109 52.35184 39148 ft 468 kts 173°
2026-05-06 10:54 30.09934 52.37554 39142 ft 467 kts 173°
2026-05-06 10:55 30.03752 52.39926 39144 ft 467 kts 173°
2026-05-06 10:55 29.97582 52.42291 39141 ft 467 kts 173°
2026-05-06 10:56 29.91443 52.44639 39128 ft 467 kts 173°
2026-05-06 10:56 29.85263 52.47001 39146 ft 467 kts 173°
2026-05-06 10:57 29.79091 52.49356 39142 ft 467 kts 173°
2026-05-06 10:57 29.73913 52.51329 39129 ft 468 kts 173°
2026-05-06 10:58 29.67767 52.53669 39149 ft 469 kts 173°
2026-05-06 10:58 29.61545 52.56032 39147 ft 470 kts 173°
2026-05-06 10:59 29.55327 52.58384 39149 ft 469 kts 174°
2026-05-06 10:59 29.49074 52.60308 39153 ft 464 kts 177°
2026-05-06 11:00 29.42803 52.62092 39157 ft 465 kts 177°
2026-05-06 11:00 29.36520 52.63878 39154 ft 465 kts 177°
2026-05-06 11:01 29.30234 52.65662 39139 ft 465 kts 177°
2026-05-06 11:01 29.23938 52.67446 39142 ft 466 kts 176°
2026-05-06 11:02 29.17682 52.69220 39141 ft 466 kts 176°
2026-05-06 11:02 29.11377 52.71004 39135 ft 466 kts 176°
2026-05-06 11:03 29.05081 52.72781 39117 ft 466 kts 176°
2026-05-06 11:03 28.98788 52.74559 39120 ft 466 kts 176°
2026-05-06 11:04 28.92485 52.76337 39104 ft 466 kts 176°
2026-05-06 11:04 28.86215 52.78099 39093 ft 467 kts 176°
2026-05-06 11:05 28.79896 52.79876 39079 ft 467 kts 176°
2026-05-06 11:05 28.73576 52.81652 39083 ft 467 kts 176°
2026-05-06 11:06 28.67265 52.83422 39036 ft 467 kts 176°
2026-05-06 11:06 28.60994 52.85176 39021 ft 466 kts 176°
2026-05-06 11:07 28.54681 52.86942 39008 ft 467 kts 176°
2026-05-06 11:07 28.48362 52.88708 39009 ft 467 kts 176°
2026-05-06 11:08 28.42054 52.90465 38979 ft 466 kts 175°
2026-05-06 11:08 28.35754 52.92192 38963 ft 465 kts 176°
2026-05-06 11:09 28.29452 52.93883 38928 ft 465 kts 176°
2026-05-06 11:09 28.23140 52.95573 38929 ft 465 kts 176°
2026-05-06 11:10 28.16871 52.97253 38932 ft 465 kts 176°
2026-05-06 11:10 28.10575 52.98939 38939 ft 465 kts 176°
2026-05-06 11:11 28.04244 53.00631 38943 ft 465 kts 176°
2026-05-06 11:11 27.98002 53.02296 38913 ft 465 kts 176°
2026-05-06 11:12 27.91702 53.03978 38906 ft 465 kts 176°
2026-05-06 11:12 27.85399 53.05658 38901 ft 465 kts 176°
2026-05-06 11:13 27.79081 53.07338 38899 ft 465 kts 175°
2026-05-06 11:13 27.72775 53.09014 38897 ft 465 kts 175°
2026-05-06 11:14 27.66469 53.10689 38891 ft 465 kts 175°
2026-05-06 11:14 27.60178 53.12357 38894 ft 465 kts 175°
2026-05-06 11:15 27.53912 53.14013 38882 ft 464 kts 175°
2026-05-06 11:15 27.47630 53.15676 38882 ft 464 kts 175°
2026-05-06 11:16 27.41331 53.17339 38851 ft 464 kts 175°
2026-05-06 11:16 27.35050 53.19096 38838 ft 466 kts 173°
2026-05-06 11:17 27.28795 53.21023 38847 ft 466 kts 173°
2026-05-06 11:17 27.22539 53.22949 38848 ft 466 kts 173°
2026-05-06 11:18 27.16285 53.24871 38859 ft 466 kts 173°
2026-05-06 11:18 27.10019 53.26789 38859 ft 467 kts 172°
2026-05-06 11:19 27.03796 53.28696 38869 ft 467 kts 172°
2026-05-06 11:19 26.97529 53.30613 38856 ft 467 kts 172°
2026-05-06 11:20 26.91241 53.32536 38841 ft 467 kts 171°
2026-05-06 11:20 26.85045 53.34986 38845 ft 476 kts 164°
2026-05-06 11:21 26.79082 53.38418 38845 ft 485 kts 156°
2026-05-06 11:21 26.73510 53.42803 38847 ft 493 kts 147°
2026-05-06 11:22 26.68287 53.47720 38842 ft 492 kts 146°
2026-05-06 11:22 26.63059 53.52674 38464 ft 494 kts 146°
2026-05-06 11:22 26.60425 53.55152 37850 ft 495 kts 147°
2026-05-06 11:23 26.57781 53.57629 37250 ft 494 kts 147°
2026-05-06 11:23 26.55059 53.59999 36630 ft 491 kts 150°
2026-05-06 11:23 26.52263 53.62178 36018 ft 489 kts 153°
2026-05-06 11:23 26.49440 53.64306 35401 ft 490 kts 152°
2026-05-06 11:24 26.46604 53.66435 34769 ft 491 kts 152°
2026-05-06 11:24 26.43761 53.68571 34125 ft 494 kts 152°
2026-05-06 11:24 26.40902 53.70723 33395 ft 497 kts 152°
2026-05-06 11:24 26.38032 53.72885 32702 ft 498 kts 152°
2026-05-06 11:25 26.35195 53.75023 32071 ft 498 kts 152°
2026-05-06 11:25 26.32323 53.77189 31427 ft 498 kts 152°
2026-05-06 11:25 26.29453 53.79352 30816 ft 497 kts 151°
2026-05-06 11:25 26.26588 53.81511 30209 ft 497 kts 151°
2026-05-06 11:26 26.23724 53.83667 29530 ft 496 kts 151°
2026-05-06 11:26 26.20860 53.85820 28810 ft 495 kts 150°
2026-05-06 11:26 26.18005 53.87961 28128 ft 494 kts 150°
2026-05-06 11:26 26.15158 53.90098 27438 ft 493 kts 150°
2026-05-06 11:27 26.12329 53.92221 26981 ft 487 kts 150°
2026-05-06 11:27 26.09611 53.94466 26558 ft 487 kts 142°
2026-05-06 11:27 26.07243 53.97175 26103 ft 488 kts 132°
2026-05-06 11:27 26.05316 54.00281 25676 ft 487 kts 122°
2026-05-06 11:28 26.03699 54.03595 25236 ft 484 kts 119°
2026-05-06 11:28 26.02162 54.06906 24787 ft 480 kts 118°
2026-05-06 11:28 26.00656 54.10163 24369 ft 476 kts 118°
2026-05-06 11:28 25.99141 54.13407 23895 ft 472 kts 118°
2026-05-06 11:29 25.97608 54.16651 23326 ft 470 kts 118°
2026-05-06 11:29 25.96078 54.19865 22633 ft 469 kts 118°
2026-05-06 11:29 25.94552 54.23064 21953 ft 466 kts 118°
2026-05-06 11:29 25.93053 54.26250 21307 ft 463 kts 117°
2026-05-06 11:30 25.91708 54.29496 20651 ft 460 kts 113°
2026-05-06 11:30 25.90557 54.32804 20018 ft 457 kts 110°
2026-05-06 11:30 25.89500 54.36132 19370 ft 454 kts 109°
2026-05-06 11:30 25.88469 54.39431 18864 ft 447 kts 109°
2026-05-06 11:31 25.87469 54.42633 18389 ft 441 kts 109°
2026-05-06 11:31 25.86469 54.45827 17862 ft 434 kts 109°
2026-05-06 11:31 25.85477 54.48980 17188 ft 429 kts 109°
2026-05-06 11:31 25.84494 54.52092 16631 ft 422 kts 109°
2026-05-06 11:32 25.83529 54.55147 16136 ft 415 kts 109°
2026-05-06 11:32 25.82581 54.58148 15670 ft 408 kts 109°
2026-05-06 11:32 25.81647 54.61103 15207 ft 401 kts 109°
2026-05-06 11:32 25.80709 54.63992 14784 ft 396 kts 111°
2026-05-06 11:33 25.79430 54.66700 14314 ft 394 kts 122°
2026-05-06 11:33 25.77746 54.69088 13882 ft 392 kts 132°
2026-05-06 11:33 25.75830 54.71174 13414 ft 389 kts 135°
2026-05-06 11:33 25.73829 54.73244 12938 ft 386 kts 136°
2026-05-06 11:34 25.71897 54.75236 12502 ft 382 kts 135°
2026-05-06 11:34 25.69960 54.77245 12030 ft 378 kts 135°
2026-05-06 11:34 25.68055 54.79233 11609 ft 374 kts 135°
2026-05-06 11:34 25.66168 54.81206 11184 ft 370 kts 135°
2026-05-06 11:35 25.64302 54.83161 10757 ft 367 kts 135°
2026-05-06 11:35 25.62519 54.85144 10407 ft 359 kts 129°
2026-05-06 11:35 25.61054 54.87333 10124 ft 348 kts 120°
2026-05-06 11:35 25.59945 54.89656 10040 ft 331 kts 113°
2026-05-06 11:36 25.59040 54.91948 9927 ft 318 kts 111°
2026-05-06 11:36 25.58204 54.94139 9812 ft 307 kts 111°
2026-05-06 11:36 25.57383 54.96284 9688 ft 296 kts 111°
2026-05-06 11:36 25.56584 54.98353 9564 ft 290 kts 111°
2026-05-06 11:37 25.55788 55.00405 9435 ft 290 kts 111°
2026-05-06 11:37 25.54975 55.02448 9304 ft 289 kts 114°
2026-05-06 11:37 25.54073 55.04442 9192 ft 289 kts 117°
2026-05-06 11:37 25.53085 55.06384 9054 ft 289 kts 118°
2026-05-06 11:38 25.52082 55.08311 8934 ft 288 kts 119°
2026-05-06 11:38 25.51078 55.10240 8810 ft 288 kts 119°
2026-05-06 11:38 25.50079 55.12161 8680 ft 287 kts 119°
2026-05-06 11:38 25.49085 55.14072 8570 ft 286 kts 119°
2026-05-06 11:39 25.48092 55.15986 8444 ft 286 kts 119°
2026-05-06 11:39 25.47083 55.17880 8321 ft 285 kts 121°
2026-05-06 11:39 25.45979 55.19705 8202 ft 285 kts 126°
2026-05-06 11:39 25.45418 55.20545 8670 ft 284 kts 128°
2026-05-06 11:40 25.44686 55.21559 8607 ft 280 kts 130°
2026-05-06 11:40 25.43416 55.23155 8467 ft 274 kts 132°
2026-05-06 11:40 25.42136 55.24719 8355 ft 274 kts 132°
2026-05-06 11:40 25.40852 55.26286 8226 ft 274 kts 132°
2026-05-06 11:41 25.39575 55.27850 8097 ft 273 kts 132°
2026-05-06 11:41 25.38302 55.29410 7985 ft 273 kts 132°
2026-05-06 11:41 25.37031 55.30969 7849 ft 272 kts 131°
2026-05-06 11:41 25.35823 55.32579 7727 ft 272 kts 127°
2026-05-06 11:42 25.34741 55.34293 7597 ft 271 kts 122°
2026-05-06 11:42 25.33746 55.36067 7468 ft 271 kts 121°
2026-05-06 11:42 25.32762 55.37845 7344 ft 270 kts 121°
2026-05-06 11:42 25.31783 55.39614 7224 ft 270 kts 121°
2026-05-06 11:43 25.30800 55.41384 7094 ft 269 kts 122°
2026-05-06 11:43 25.29832 55.43126 6970 ft 269 kts 122°
2026-05-06 11:43 25.28852 55.44886 6844 ft 268 kts 122°
2026-05-06 11:44 25.26891 55.48404 6533 ft 268 kts 122°
2026-05-06 11:44 25.25913 55.50162 6208 ft 268 kts 122°
2026-05-06 11:44 25.24943 55.51906 5913 ft 266 kts 122°
2026-05-06 11:44 25.23975 55.53647 5622 ft 264 kts 122°
2026-05-06 11:45 25.23016 55.55370 5319 ft 262 kts 122°
2026-05-06 11:45 25.22060 55.57088 5029 ft 261 kts 122°
2026-05-06 11:45 25.21433 55.58215 4852 ft 260 kts 121°
2026-05-06 11:45 25.20497 55.59916 4619 ft 256 kts 121°
2026-05-06 11:46 25.19585 55.61582 4418 ft 250 kts 121°
2026-05-06 11:46 25.18691 55.63215 4215 ft 246 kts 121°
2026-05-06 11:46 25.17816 55.64813 4023 ft 240 kts 121°
2026-05-06 11:46 25.16966 55.66368 3923 ft 231 kts 121°
2026-05-06 11:47 25.15880 55.68352 3821 ft 226 kts 121°
2026-05-06 11:47 25.15341 55.69338 3782 ft 226 kts 121°
2026-05-06 11:47 25.14513 55.70852 3695 ft 226 kts 121°
2026-05-06 11:47 25.13712 55.72317 3617 ft 226 kts 121°
2026-05-06 11:48 25.12863 55.73809 3538 ft 226 kts 130°
2026-05-06 11:48 25.11603 55.74801 3447 ft 225 kts 163°
2026-05-06 11:48 25.10078 55.74853 3373 ft 225 kts 197°
2026-05-06 11:48 25.08725 55.74018 3293 ft 225 kts 228°
2026-05-06 11:49 25.08042 55.72491 3265 ft 225 kts 262°
2026-05-06 11:49 25.08168 55.70786 3269 ft 225 kts 285°
2026-05-06 11:49 25.08618 55.69132 3269 ft 225 kts 288°
2026-05-06 11:49 25.09093 55.67481 3263 ft 225 kts 287°
2026-05-06 11:50 25.09511 55.65818 3261 ft 225 kts 284°
2026-05-06 11:50 25.09917 55.64141 3252 ft 225 kts 292°
2026-05-06 11:50 25.10660 55.62622 3262 ft 225 kts 303°
2026-05-06 11:50 25.11522 55.61207 3261 ft 225 kts 304°
2026-05-06 11:51 25.12396 55.59772 3260 ft 225 kts 303°
2026-05-06 11:51 25.13245 55.58316 3260 ft 225 kts 302°
2026-05-06 11:51 25.14065 55.56856 3256 ft 220 kts 301°
2026-05-06 11:51 25.14847 55.55432 3220 ft 215 kts 301°
2026-05-06 11:52 25.15618 55.54017 3054 ft 214 kts 301°
2026-05-06 11:52 25.16380 55.52620 2827 ft 210 kts 301°
2026-05-06 11:52 25.17131 55.51243 2521 ft 208 kts 301°
2026-05-06 11:52 25.17872 55.49889 2228 ft 203 kts 301°
2026-05-06 11:53 25.18589 55.48582 1946 ft 195 kts 301°
2026-05-06 11:53 25.19278 55.47326 1688 ft 187 kts 301°
2026-05-06 11:53 25.19937 55.46127 1442 ft 177 kts 301°
2026-05-06 11:53 25.20549 55.45014 1213 ft 165 kts 301°
2026-05-06 11:54 25.21133 55.43954 1004 ft 153 kts 301°
2026-05-06 11:54 25.21660 55.42996 808 ft 145 kts 301°
2026-05-06 11:54 25.22183 55.42046 640 ft 144 kts 301°
2026-05-06 11:54 25.22703 55.41101 450 ft 144 kts 301°
2026-05-06 11:55 25.23223 55.40159 260 ft 143 kts 301°
2026-05-06 11:55 25.23742 55.39217 60 ft 143 kts 301°
2026-05-06 11:55 25.24214 55.38360 34 ft 107 kts 301°
2026-05-06 11:55 25.24506 55.37836 32 ft 54 kts 301°
2026-05-06 11:56 25.24675 55.37531 31 ft 35 kts 301°
2026-05-06 11:56 25.24761 55.37344 32 ft 27 kts 288°
2026-05-06 11:56 25.24784 55.37158 32 ft 21 kts 271°
2026-05-06 11:56 25.24788 55.37013 31 ft 18 kts 276°
2026-05-06 11:57 25.24838 55.36872 30 ft 21 kts 293°
2026-05-06 11:57 25.24881 55.36703 30 ft 25 kts 288°
2026-05-06 11:57 25.24967 55.36531 30 ft 21 kts 302°
2026-05-06 11:57 25.25033 55.36414 30 ft 19 kts 302°
2026-05-06 11:58 25.25111 55.36276 30 ft 23 kts 302°
2026-05-06 11:58 25.25194 55.36129 30 ft 22 kts 302°
2026-05-06 11:58 25.25268 55.35998 30 ft 20 kts 302°
2026-05-06 11:58 25.25346 55.35860 30 ft 18 kts 302°
2026-05-06 11:59 25.25417 55.35733 30 ft 17 kts 301°
2026-05-06 11:59 25.25477 55.35625 30 ft 14 kts 302°
2026-05-06 11:59 25.25536 55.35521 30 ft 18 kts 302°
2026-05-06 11:59 25.25606 55.35397 30 ft 20 kts 302°
2026-05-06 12:00 25.25669 55.35286 30 ft 17 kts 302°
2026-05-06 12:00 25.25726 55.35185 30 ft 17 kts 302°
2026-05-06 12:00 25.25790 55.35065 30 ft 16 kts 300°
2026-05-06 12:00 25.25849 55.34958 30 ft 16 kts 302°
2026-05-06 12:01 25.25897 55.34873 30 ft 11 kts 301°
2026-05-06 12:01 25.25925 55.34814 30 ft 9 kts 277°
2026-05-06 12:01 25.25882 55.34765 30 ft 11 kts 211°
2026-05-06 12:01 25.25844 55.34739 30 ft 5 kts 211°
2026-05-06 12:02 25.25818 55.34722 30 ft 4 kts 211°
2026-05-06 12:02 25.25795 55.34706 30 ft 3 kts 211°
2026-05-06 12:02 25.25785 55.34699 30 ft 1 kts 211°
2026-05-06 12:02 25.25782 55.34697 30 ft 0 kts 211°